Weather History for Sacramento, CA

Change the Weather History Date:

Sunday, March 24, 2013

  Actual Average Record
Temperature  
Mean Temperature 57 °F -  
Max Temperature 73 °F 66 °F 81 °F (1997)
Min Temperature 40 °F 45 °F 33 °F (1945)
Degree Days  
Heating Degree Days 8    
Cooling Degree Days 0    
Growing Degree Days 6 (Base 50)    
Moisture  
Dew Point 38 °F    
Average Humidity 52    
Maximum Humidity 79    
Minimum Humidity 25    
Precipitation  
Precipitation 0.00 in 0.07 in 1.11 in (2011)
Month to date precipitation 0.66 2.29  
Year to date precipitation 1.98 9.40  
Since 1 July precipitation 13.27 16.02  
Sea Level Pressure  
Sea Level Pressure 30.03 in    
Wind  
Wind Speed 1 mph (South)    
Max Wind Speed 7 mph    
Max Gust Speed 9 mph    
Visibility 10 miles    
Events      
T = Trace of Precipitation, MM = Missing Value Source: NWS Daily Summary

Daily Weather History Graph

Daily Weather History Graph

Search for Another Location

Airport:

Trip Planner

Search our weather history database for the weather conditions in past years. The results will help you decide how hot, cold, wet, or windy it might be!

Date:

Astronomy

Mar. 24, 2013 Rise Set
Actual Time 7:02 AM PDT 7:22 PM PDT
Civil Twilight 6:36 AM PDT 7:48 PM PDT
Nautical Twilight 6:05 AM PDT 8:19 PM PDT
Astronomical Twilight 5:33 AM PDT 8:51 PM PDT
Moon 4:57 PM PDT (3/24) 5:14 AM PDT (3/24)
Length of Visible Light 13h 12m
Length of Day
12h 19m
Waxing Gibbous, 92% of the Moon is Illuminated
Mar 24
Waxing Gibbous
Mar 27
Full
Apr 2
Last Quarter
Apr 10
New
Apr 18
First Quarter

Hourly Weather History & Observations

Time (PDT) Temp. Windchill Dew Point Humidity Pressure Visibility Wind Dir Wind Speed Gust Speed Precip Events Conditions
12:53 AM 46.9 °F - 39.0 °F 74% 30.07 in 10.0 mi Calm Calm - N/A   Clear
1:53 AM 48.0 °F - 37.9 °F 68% 30.06 in 10.0 mi ESE 3.5 mph - N/A   Clear
2:53 AM 46.0 °F 44.8 °F 37.0 °F 71% 30.07 in 10.0 mi East 3.5 mph - N/A   Clear
3:53 AM 46.0 °F - 35.1 °F 66% 30.06 in 10.0 mi Calm Calm - N/A   Clear
4:53 AM 43.0 °F - 35.1 °F 74% 30.06 in 10.0 mi Calm Calm - N/A   Clear
5:53 AM 42.1 °F - 35.1 °F 76% 30.06 in 10.0 mi Calm Calm - N/A   Clear
6:53 AM 39.9 °F - 34.0 °F 79% 30.07 in 10.0 mi Calm Calm - N/A   Clear
7:53 AM 42.1 °F - 36.0 °F 79% 30.09 in 10.0 mi Calm Calm - N/A   Clear
8:53 AM 51.1 °F - 39.9 °F 66% 30.09 in 10.0 mi Calm Calm - N/A   Clear
9:53 AM 57.0 °F - 37.9 °F 49% 30.10 in 10.0 mi Calm Calm - N/A   Clear
10:53 AM 61.0 °F - 39.9 °F 46% 30.09 in 10.0 mi Calm Calm - N/A   Clear
11:53 AM 63.0 °F - 37.9 °F 40% 30.08 in 10.0 mi Calm Calm - N/A   Clear
12:53 PM 66.0 °F - 37.0 °F 34% 30.06 in 10.0 mi Calm Calm - N/A   Clear
1:53 PM 69.1 °F - 37.0 °F 31% 30.04 in 10.0 mi West 4.6 mph - N/A   Clear
2:53 PM 71.1 °F - 37.9 °F 30% 30.01 in 10.0 mi Calm Calm - N/A   Clear
3:53 PM 72.0 °F - 37.0 °F 28% 29.99 in 10.0 mi Calm Calm - N/A   Clear
4:53 PM 72.0 °F - 33.1 °F 24% 29.96 in 10.0 mi Calm Calm - N/A   Clear
5:53 PM 71.1 °F - 30.9 °F 23% 29.95 in 10.0 mi SW 4.6 mph - N/A   Clear
6:53 PM 69.1 °F - 32.0 °F 25% 29.95 in 10.0 mi Calm Calm - N/A   Clear
7:53 PM 62.1 °F - 37.0 °F 39% 29.94 in 10.0 mi Calm Calm - N/A   Clear
8:53 PM 61.0 °F - 41.0 °F 48% 29.95 in 10.0 mi SSW 4.6 mph - N/A   Clear
9:53 PM 57.0 °F - 45.0 °F 64% 29.96 in 10.0 mi South 4.6 mph - N/A   Clear
10:53 PM 55.9 °F - 44.1 °F 64% 29.97 in 10.0 mi SSW 5.8 mph - N/A   Clear
11:53 PM 55.0 °F - 44.1 °F 67% 29.96 in 10.0 mi South 5.8 mph - N/A   Clear